Hourly Data Report for October 02, 2017

All times are specified in Local Standard Time (LST). Add 1 hour to adjust for Daylight Saving Time where and when it is observed.

GIMLI CLIMATE
MANITOBA

50°38'00.000" N
97°03'00.000" W
230.10 m
5031042
71748
PGH

Download Data

Hourly Data (October 2017)
Hourly Data Report for October 2, 2017
Temp Definition
°C
Dew Point Temp Definition
°C
Rel Hum Definition
%
Wind Dir Definition
10's deg

Wind Spd Definition
km/h
Visibility Definition
km
Stn Press Definition
kPa
Hmdx Definition


Wind Chill Definition


Weather Definition


TIME
00:00 13.4 12.5 95 15 15   97.59     LegendNANA
01:00 13.5 12.7 95 14 7   97.55     LegendNANA
02:00 13.5 12.7 95 12 10   97.52     LegendNANA
03:00 13.8 12.9 94 14 9   97.50     LegendNANA
04:00 14.1 13.1 94 13 12   97.45     LegendNANA
05:00 14.1 13.3 95 13 12   97.42     LegendNANA
06:00 14.3 13.5 95 14 15   97.47     LegendNANA
07:00 14.1 13.2 94 14 13   97.45     LegendNANA
08:00 14.0 13.2 95 15 16   97.51     LegendNANA
09:00 14.4 13.5 94 17 16   97.54     LegendNANA
10:00 13.1 11.6 90 22 20   97.62     LegendNANA
11:00 13.2 11.0 86 21 22   97.67     LegendNANA
12:00 13.4 10.1 80 21 22   97.75     LegendNANA
13:00 14.4 10.1 76 20 23   97.77     LegendNANA
14:00 15.0 8.9 67 21 29   97.83     LegendNANA
15:00 15.2 7.7 61 22 24   97.91     LegendNANA
16:00 15.9 7.1 56 21 25   97.93     LegendNANA
17:00 15.5 7.0 57 21 22   98.01     LegendNANA
18:00 13.1 6.3 63 22 16   98.09     LegendNANA
19:00 10.3 5.6 73 22 12   98.20     LegendNANA
20:00 7.9 4.6 80 21 12   98.32     LegendNANA
21:00 7.3 4.0 79 21 10   98.40     LegendNANA
22:00 5.9 3.4 84 20 7   98.47     LegendNANA
23:00 4.2 2.9 91 11 4   98.44     LegendNANA

Notes on Data Quality.

Legend

  • E = Estimated
  • M = Missing
  • NA = Not Available
  • ‡ = Partner data that is not subject to review by the National Climate Archives
Date modified: